Regional Weather Roundup
Issued by NWS State College, PA

Home | Current Version | Previous Version | Text Only | Print | Product List | Glossary On
Versions: 1 2 3 4 5 6 7 8 9 10 11 12 13 14 15 16 17 18 19 20 21 22 23 24 25 26 27 28 29 30 31 32 33 34 35 36 37 38 39 40 41 42 43 44 45 46 47 48 49 50
000
ASUS41 KCTP 261803
RWRCTP

REGIONAL WEATHER ROUNDUP
NATIONAL WEATHER SERVICE STATE COLLEGE PA
200 PM EDT TUE MAY 26 2015

Note: "fair" indicates few or no clouds below 12,000 feet with no
significant weather and/or obstructions to visibility.

* = STATION THAT DOES NOT REPORT PRECIPITATION /E.G. RAIN...SNOW...ETC/
    THUNDER OR FOG.

PAZ002>004-007>009-013>016-020>023-029>032-261900-
WESTERN PENNSYLVANIA

CITY           SKY/WX    TMP DP  RH WIND       PRES   REMARKS
ERIE           PTSUNNY   77  63  61 W8        30.10S
MEADVILLE      CLOUDY    75  62  64 S13G23    30.15F
FRANKLIN*      CLOUDY    73  61  64 SW13G18   30.19S
NEW CASTLE     MOCLDY    79  68  69 S6        30.17F
BEAVER COUNTY  CLOUDY    73  64  73 S13       30.17F
BUTLER*        CLOUDY    73  63  68 SW9       30.21F
PITTSBURGH INT LGT RAIN  74  64  71 S10G17    30.18F
PITTSBURGH     CLOUDY    71  62  73 S10       30.19F
INDIANA*       PTSUNNY   73  66  78 SW12      30.25F
LATROBE        LGT RAIN  72  66  83 SW12G23   30.25R
WASHINGTON CO* CLOUDY    73  64  73 SE9       30.21F
$$

PAZ004>006-010>012-017>019-024>028-033>037-041-042-045-046-049>053-261900-
CENTRAL PENNSYLVANIA

CITY           SKY/WX    TMP DP  RH WIND       PRES   REMARKS
BRADFORD       CLOUDY    74  63  68 SW8G17    30.19F
DUBOIS         CLOUDY    75  63  66 S7        30.20F
CLEARFIELD     LGT RAIN  72  63  73 VRB6      30.22F
JOHNSTOWN      LGT RAIN  69  61  75 SW8       30.26S
ALTOONA        CLOUDY    77  62  59 W10       30.23F
STATE COLLEGE  PTSUNNY   79  64  61 SW8       30.20S
WILLIAMSPORT   LGT RAIN  81  64  56 VRB3      30.15F
SELINSGROVE    CLOUDY    84  63  49 SW7       30.17F
FT INDIANTOWN  CLOUDY    81  63  54 VRB5      30.19S
CAPITAL CITY   MOSUNNY   85  62  46 W7        30.17F
HARRISBURG     MOSUNNY   86  63  45 SE6       30.16F
YORK           SUNNY     84  64  50 SW8       30.19F
$$

PAZ038>040-043-044-047-048-054-055-060>062-067>071-261900-
EASTERN PENNSYLVANIA

CITY           SKY/WX    TMP DP  RH WIND       PRES   REMARKS
SCRANTON       PTSUNNY   85  60  42 SW6       30.17F
MOUNT POCONO   PTSUNNY   80  59  48 W8        30.23S
ALLENTOWN      SUNNY     88  62  41 S8        30.17F
QUAKERTOWN*    CLEAR     86  63  45 S12       30.20F
READING        MOSUNNY   86  60  41 S7        30.17F
LANCASTER      MOSUNNY   85  62  46 SW8       30.19F
COATESVILLE    CLEAR     82  63  51 SW6       30.22F
POTTSTOWN      SUNNY     84  60  44 S8G16     30.20F
BLUE BELL      MOSUNNY   86  63  45 SW8       30.19F
DOYLESTOWN     SUNNY     83  59  44 S8        30.18F
WILLOW GROVE   NOT AVBL
NORTH PHILA    MOSUNNY   87  59  38 W10       30.20F
PHILADELPHIA   PTSUNNY   86  61  42 SW16      30.19F
$$



USA.gov is the U.S. government's official web portal to all federal, state and local government web resources and services.